Location: Berlin
(38.3226°N, 75.2177°W)
Time: 23:49:07
(UTC+00:00)

CZ-3 R/B - Pass Details

Date: 26 October 2020
Orbit: 374 x 10234 km, 28.4° (Epoch: 05 December)

Event Time Altitude Azimuth Distance (km) Brightness Sun altitude
Exits shadow 10:41:29 - 262° (W) 8,978 5.8 -8.5°
Reaches altitude 10° 10:46:28 10° 261° (W) 7,525 5.5 -7.5°
Maximum altitude 11:03:56 45° 196° (SSW) 1,986 3.1 -4.1°
Drops below altitude 10° 11:09:25 10° 123° (ESE) 2,475 5.1 -3.1°
Sets 11:11:06 0° 115° (ESE) 3,058 6.3 -2.8°
